Location: Normandy Village
(37.8755°N, 122.2655°W)
Time: 11:19:21
(UTC+00:00)

ATLAS 3B R/B - Pass Details

Date: 06 December 2019
Orbit: 1027 x 1168 km, 63.8° (Epoch: 16 January)

Event Time Altitude Azimuth Distance (km) Brightness Sun altitude
Rises 03:06:09 0° 315° (NW) 3,814 6.1 -26.3°
Reaches altitude 10° 03:09:13 10° 303° (WNW) 2,874 5.5 -26.9°
Maximum altitude 03:14:32 25° 250° (WSW) 2,002 4.8 -27.9°
Drops below altitude 10° 03:20:00 10° 198° (SSW) 2,937 5.3 -29.0°
Sets 03:23:11 0° 186° (S) 3,915 5.8 -29.6°
